ECMWFNIL_850_temp_000.txt.gz
Temp
16 15 15 15 14 14 15 15 15 15 15 15 15 15 15 15 15 15 15 15 15 15 15 15 15 15 15 15 15 15 15 15 15 15 14 14 14 15 15 15 15 15
15 15 15 14 14 14 14 14 15 15 15 15 15 15 15 15 15 15 15 15 15 15 15 15 15 15 14 14 14 15 15 14 15 15 14 14 14 14 15 15 15 15
16 15 15 14 14 14 14 14 15 15 15 14 15 15 15 15 15 15 15 15 15 15 15 15 15 14 14 14 14 14 14 14 14 14 14 14 14 14 14 14 14 15
16 15 15 14 14 14 14 14 14 14 14 14 14 14 15 15 15 15 15 15 15 15 15 15 15 15 14 14 14 14 14 14 14 13 13 14 14 14 14 14 14 14
16 16 15 14 14 14 14 14 14 14 14 14 14 14 15 15 15 15 15 15 15 15 15 15 15 14 14 14 14 14 14 14 14 14 14 14 14 14 14 13 13 14
16 16 15 14 14 14 14 14 14 15 15 15 15 15 15 15 15 15 15 15 14 14 15 15 14 14 14 14 14 14 14 14 14 14 14 13 14 14 13 13 13 13
16 15 15 14 14 14 14 14 14 14 15 15 15 15 15 15 15 15 15 15 14 14 15 14 14 14 14 14 14 13 14 14 13 13 13 13 13 13 13 13 13 13
16 15 15 14 14 14 14 14 14 14 14 15 15 15 15 15 15 15 15 14 14 14 14 14 14 14 14 14 14 14 14 13 13 13 13 13 13 13 13 13 13 13
16 15 15 14 14 14 14 14 14 14 14 14 14 15 15 15 15 15 15 14 14 14 14 14 14 14 14 14 13 13 13 12 13 13 13 13 13 13 13 13 13 13
16 15 15 15 14 14 15 15 15 15 14 14 14 14 14 15 14 15 15 14 14 14 14 14 13 13 14 14 13 13 13 12 13 13 13 13 13 12 12 12 12 12
15 15 15 15 15 15 15 15 15 15 14 14 14 14 14 14 14 14 14 14 14 14 14 14 13 13 13 13 13 13 13 13 13 13 13 13 12 12 11 11 11 11
15 15 15 15 15 15 15 15 14 14 14 14 14 14 14 14 14 14 14 14 14 14 14 14 13 13 13 14 13 13 13 13 13 13 13 12 12 12 11 10 11 11
16 15 15 15 15 15 14 14 14 14 14 14 14 14 14 14 14 14 14 14 14 14 14 14 13 13 13 14 13 13 13 13 13 13 12 12 12 12 11 10 10 10
16 15 15 15 15 15 14 14 14 14 14 14 14 14 14 14 14 14 14 14 14 13 14 14 13 13 13 13 13 13 13 13 13 12 12 12 12 11 10 10 10 10
16 15 15 15 15 15 14 14 14 14 14 14 14 14 14 14 14 14 14 14 14 14 13 13 13 13 13 13 13 13 13 12 13 12 12 12 12 11 10 11 11 11
16 15 15 15 15 14 14 14 14 14 14 14 14 14 14 14 14 14 14 14 14 14 13 13 13 13 13 13 13 13 13 12 13 13 12 12 11 11 11 11 11 10
16 15 15 15 15 14 14 14 14 14 14 14 14 14 14 14 14 14 14 14 14 14 14 13 13 13 14 13 13 13 12 12 13 13 12 12 11 11 11 11 11 11
16 16 15 15 15 15 14 14 14 14 14 14 14 14 14 14 14 14 14 14 14 14 13 13 13 13 14 13 13 13 12 12 13 13 12 12 11 11 11 11 11 11
16 16 15 15 15 15 14 14 14 14 14 14 14 14 14 14 14 14 14 14 14 13 13 13 13 13 13 13 13 13 12 12 13 12 12 12 11 11 11 11 11 11
16 16 15 15 15 15 14 14 14 14 14 14 15 15 14 14 14 14 14 14 14 14 13 13 13 13 13 13 13 13 12 12 12 12 12 12 11 11 11 10 10 10
16 16 16 15 15 15 15 14 14 15 14 14 14 14 14 14 14 14 14 14 14 14 14 14 13 13 13 13 13 13 12 12 12 12 12 12 12 11 11 11 11 11
16 16 16 15 15 15 15 15 15 15 15 14 14 14 14 14 14 14 14 14 14 14 14 14 13 13 13 13 13 13 12 12 12 12 12 12 12 11 11 11 11 11
16 16 16 16 16 15 15 15 15 15 15 15 14 14 14 14 14 14 14 14 14 13 13 13 13 13 13 13 13 13 12 12 12 12 12 11 12 12 11 11 11 11
16 16 16 16 16 15 15 15 15 15 15 15 14 14 14 14 14 14 14 13 13 13 13 13 13 13 13 13 13 13 12 12 12 12 11 11 11 12 12 11 11 11
16 16 16 16 16 16 15 15 15 15 14 14 14 14 14 14 14 13 13 13 13 13 13 13 13 13 13 13 13 13 13 12 12 12 12 11 11 12 12 12 12 12
16 16 16 16 15 15 15 15 15 15 15 14 14 14 14 14 14 14 13 13 13 12 12 12 13 13 13 13 13 13 13 12 12 12 11 11 11 12 12 12 12 12

ECMWFNIL_850_temp_006.txt.gz
Temp
17 17 17 17 17 17 17 16 16 15 15 16 15 15 15 16 16 16 16 16 16 16 16 15 15 15 15 15 15 15 15 15 15 15 15 15 15 15 15 15 15 15
17 17 17 17 17 16 16 16 15 15 15 15 15 15 16 16 16 16 16 16 16 16 16 16 16 15 15 15 15 14 15 15 15 15 15 15 15 15 15 15 15 15
17 17 16 16 16 16 16 16 16 16 15 15 15 15 15 15 15 15 16 16 16 16 16 15 15 15 15 15 15 15 15 15 15 15 15 15 15 15 15 15 14 14
17 17 17 16 16 16 16 16 16 15 15 15 15 15 15 15 15 15 16 16 16 15 15 15 15 15 15 15 15 15 15 15 15 14 15 15 15 14 15 14 14 14
17 17 17 17 16 16 17 16 16 15 15 15 15 15 15 15 15 15 15 16 15 15 15 14 14 14 15 15 15 15 15 15 15 15 14 15 15 14 14 14 14 14
17 17 17 17 17 17 17 16 15 16 16 16 16 16 16 16 16 16 16 16 16 15 15 14 14 14 14 14 14 15 15 15 15 15 15 15 15 14 14 14 14 14
17 17 17 17 17 17 16 16 16 16 16 16 16 16 16 16 16 15 15 15 15 15 15 15 15 14 14 14 14 14 14 15 15 15 15 15 15 14 14 14 14 14
17 17 17 17 17 16 16 16 16 17 17 16 16 16 16 16 15 15 15 15 15 15 14 15 15 14 14 14 14 14 14 14 14 14 14 15 14 14 14 14 14 14
17 17 16 16 16 16 16 16 16 17 17 17 16 16 16 16 16 15 15 15 15 15 15 15 15 15 15 14 14 14 14 14 14 14 14 14 14 14 14 14 14 14
17 17 16 16 16 16 16 16 16 17 17 17 16 16 16 16 16 16 16 15 15 15 15 15 14 15 15 15 15 15 15 15 15 14 14 14 14 13 14 14 14 14
17 17 16 16 16 16 16 17 17 17 17 17 17 16 16 16 16 16 16 16 15 15 15 15 15 15 14 14 15 15 15 15 15 14 14 14 13 13 13 13 13 13
17 17 17 17 17 17 17 17 17 17 17 17 17 16 16 16 16 16 16 16 16 15 15 15 15 15 14 14 14 15 15 15 15 14 14 14 13 13 13 13 12 12
17 17 17 17 17 17 17 17 17 17 17 17 17 17 17 16 16 16 15 15 15 15 15 15 15 14 14 14 14 14 14 15 14 14 14 14 13 13 13 13 12 12
18 17 17 17 17 17 17 17 16 16 17 17 17 17 16 16 15 15 15 15 15 15 15 15 15 14 14 14 14 14 14 14 14 14 14 14 13 13 13 13 12 12
18 18 18 17 17 17 17 17 16 16 16 16 16 16 16 15 15 15 15 15 15 15 15 15 14 14 14 14 14 14 14 14 14 14 14 14 13 13 13 13 12 12
18 18 17 17 17 17 17 17 16 16 16 15 15 15 15 15 15 15 15 15 15 15 15 14 14 14 14 14 14 14 14 14 14 14 14 14 14 13 13 12 12 12
18 18 17 17 17 17 17 17 17 16 15 15 15 15 15 15 15 15 15 15 15 15 14 14 14 15 15 14 14 14 14 14 14 14 13 13 13 13 13 12 12 12
18 17 17 17 17 17 17 17 17 16 16 15 15 15 15 15 15 15 15 15 15 15 15 15 15 15 15 15 15 14 14 14 13 13 13 13 13 13 13 12 12 12
18 17 17 17 17 17 17 17 16 16 16 15 15 15 15 15 15 15 15 15 15 15 15 15 15 15 15 15 14 14 14 13 13 13 13 13 13 13 12 12 12 12
18 18 17 17 17 17 17 17 16 16 16 16 15 15 15 15 15 15 15 15 15 15 15 15 15 15 15 14 14 14 14 13 13 13 13 13 13 13 12 12 12 12
18 18 17 17 17 17 17 17 16 16 16 16 16 15 15 16 15 15 15 15 15 15 15 15 15 14 14 14 14 14 13 13 13 13 13 13 13 13 13 12 12 12
18 18 18 17 17 17 17 16 16 16 16 16 16 16 15 15 15 15 15 15 15 15 15 14 14 14 14 14 14 13 13 13 13 13 13 13 13 13 13 12 12 12
18 18 18 18 17 17 17 16 16 16 16 16 16 16 15 15 15 15 15 15 15 15 14 14 14 14 14 14 13 13 13 13 13 13 13 13 13 13 13 12 12 12
18 18 18 18 18 17 17 16 16 16 16 16 16 16 15 15 15 15 15 15 15 15 14 14 14 14 14 13 13 13 13 13 13 13 13 13 13 13 13 13 12 12
19 19 18 18 18 17 17 16 16 16 16 16 16 16 16 15 15 15 15 15 15 15 14 14 14 14 14 13 13 13 13 13 13 13 13 13 13 13 13 13 12 12
19 19 18 18 18 17 17 16 16 16 16 16 16 16 15 15 15 15 15 15 15 15 14 14 14 14 14 13 13 13 13 13 13 13 13 13 13 13 13 13 12 12

ECMWFNIL_850_temp_009.txt.gz
Temp
20 19 19 19 19 18 18 18 18 18 17 17 16 16 16 15 16 16 16 16 16 16 16 16 16 15 15 16 16 16 16 15 15 15 15 15 15 15 15 15 15 15
19 19 19 18 18 18 18 17 18 18 17 17 16 16 15 15 15 16 16 16 16 16 16 16 16 15 15 15 15 15 15 15 15 15 15 15 14 15 15 15 15 15
19 19 19 18 18 18 18 18 17 17 17 16 16 15 15 15 16 16 16 16 16 16 16 16 16 15 15 15 14 14 14 14 15 15 15 14 14 15 15 15 15 15
20 19 19 19 19 18 17 17 17 17 17 16 16 15 15 16 16 16 16 16 16 16 16 16 15 14 14 14 14 14 14 14 14 15 15 15 15 15 15 15 15 15
20 19 19 19 18 18 17 17 17 17 17 16 16 16 16 16 16 17 17 17 17 16 16 16 15 14 14 14 14 14 14 14 14 14 15 15 15 15 14 14 14 14
20 20 19 19 18 18 18 18 17 17 17 17 17 16 16 16 17 17 16 17 17 16 16 16 15 15 14 14 14 14 14 14 14 14 14 14 14 14 14 14 14 14
20 20 20 19 19 19 18 18 17 17 17 17 17 16 16 17 17 16 16 16 16 16 16 15 15 15 15 14 14 14 14 14 14 14 14 14 14 14 14 14 14 14
20 20 20 20 19 19 18 18 17 17 17 16 16 16 16 16 16 16 16 16 16 16 16 15 15 15 15 15 15 15 14 14 14 14 14 14 14 14 13 13 13 14
20 20 20 20 19 19 18 18 17 17 17 16 16 16 16 16 16 16 16 16 16 16 16 15 15 15 15 15 15 14 14 14 14 15 14 14 14 14 14 13 13 13
20 20 20 20 19 18 18 17 17 17 16 16 17 17 16 16 16 16 16 16 16 16 16 15 15 15 15 15 14 14 14 14 14 14 14 14 14 14 14 13 13 13
20 20 21 20 19 18 17 17 17 17 16 16 17 16 16 16 16 16 16 16 16 16 15 15 15 15 15 15 14 14 14 15 15 14 14 14 14 14 14 13 13 13
20 20 21 20 19 18 17 16 16 16 16 17 17 17 16 16 16 16 16 16 16 15 15 15 15 15 15 15 15 14 14 14 14 14 14 14 14 14 13 13 13 13
20 20 20 19 18 17 17 17 17 17 17 17 17 17 17 16 16 17 17 16 15 15 15 15 15 15 15 15 14 14 14 14 14 14 14 14 14 14 14 13 13 13
21 20 20 19 18 17 17 17 17 17 17 17 17 17 17 17 17 17 17 16 15 15 15 15 15 15 14 14 14 14 14 14 14 14 14 14 14 14 14 14 13 13
20 20 19 18 18 17 17 17 17 17 17 17 17 17 17 17 17 17 16 16 15 15 15 15 15 15 15 15 15 15 14 14 14 14 14 14 14 14 14 14 13 13
20 19 18 18 18 17 18 18 17 17 18 18 18 18 17 17 16 16 16 16 15 15 15 15 15 15 15 15 15 14 14 14 14 14 14 13 13 13 13 14 13 13
20 19 18 18 17 17 18 18 18 18 18 18 18 18 17 17 16 16 16 15 15 15 15 15 15 15 15 15 15 15 14 14 14 14 14 13 13 13 13 13 13 13
20 19 18 18 18 18 18 18 18 18 18 18 17 17 17 16 16 16 15 15 15 15 15 15 15 15 15 15 15 15 14 14 14 14 14 13 13 13 13 13 13 13
20 19 19 18 18 18 18 18 18 18 18 17 17 17 16 16 15 15 15 15 15 15 15 15 15 15 15 15 14 14 14 14 14 13 13 13 13 13 13 13 13 13
19 19 19 19 19 19 18 18 18 18 18 17 17 16 16 16 15 15 15 15 15 15 15 15 15 15 15 14 14 14 14 14 13 13 13 13 13 13 13 13 13 12
19 19 19 19 19 19 18 18 18 18 17 17 16 16 16 16 15 15 15 15 15 15 15 15 15 15 15 14 14 14 13 13 13 13 13 13 13 13 13 13 12 13
19 19 19 19 19 18 18 18 18 17 17 17 16 16 16 16 16 15 15 15 15 15 15 15 15 15 14 14 14 13 13 13 13 13 13 13 13 13 13 13 12 13
19 20 19 19 19 18 18 18 17 17 17 17 16 16 16 16 16 16 16 15 15 15 15 15 15 15 14 14 14 14 13 13 13 13 13 13 13 13 13 13 13 13
19 19 19 19 19 19 18 18 17 17 17 17 16 16 16 16 16 16 15 15 15 15 15 15 15 15 14 14 14 14 13 12 12 12 13 13 13 13 13 13 13 13
19 19 19 19 19 18 18 18 17 17 17 17 16 16 16 16 16 15 15 15 15 15 15 15 15 14 14 14 13 13 13 12 12 12 13 13 13 13 13 13 12 12
19 19 19 19 18 18 18 18 17 17 16 16 16 16 16 16 16 15 15 15 15 15 15 15 14 14 14 13 13 13 12 12 12 12 13 13 12 12 12 12 12 13

ECMWFNIL_850_temp_012.txt.gz
Temp
21 21 20 20 20 20 19 19 18 18 17 17 17 17 16 16 16 16 16 16 16 16 16 16 16 16 15 15 15 15 15 15 15 15 15 15 15 15 14 15 15 15
22 21 20 20 20 20 19 19 18 18 17 17 17 17 16 16 16 16 16 16 16 16 16 16 16 16 15 15 15 15 15 15 15 15 15 15 15 15 14 15 15 15
22 21 20 21 21 20 20 19 18 18 18 18 17 17 16 16 16 16 16 16 16 16 16 16 16 16 16 15 14 14 15 15 15 15 15 15 15 15 14 14 14 15
22 21 21 20 20 20 20 19 19 18 18 17 17 16 16 16 16 16 16 16 16 16 16 16 16 16 16 15 15 14 14 14 14 14 14 15 15 15 14 14 14 14
22 21 21 20 20 20 20 19 19 18 18 17 17 17 16 16 16 16 16 16 16 16 16 16 16 16 16 15 15 15 14 14 14 14 14 14 14 14 14 14 14 14
22 21 21 20 20 20 20 20 19 18 18 17 17 17 16 16 16 17 16 16 16 16 16 16 16 15 15 15 15 15 14 14 14 14 14 14 14 14 14 14 14 14
22 21 21 20 20 20 20 19 19 18 18 17 17 17 16 16 16 16 16 16 16 16 16 16 16 15 15 15 15 15 15 14 14 14 14 14 14 14 14 14 14 14
22 21 20 20 20 20 19 19 19 18 18 18 17 17 16 16 16 16 16 16 16 16 16 16 16 15 15 15 15 15 15 14 14 14 14 14 14 14 14 13 13 13
21 21 20 20 20 19 19 19 18 18 18 18 18 17 17 16 16 16 16 16 16 16 16 16 16 15 15 15 15 15 15 14 14 14 14 14 14 14 14 14 13 13
21 21 20 20 20 19 19 19 18 18 18 18 17 17 17 16 16 16 16 16 16 16 16 16 16 15 15 15 15 14 14 14 14 14 14 14 14 14 14 14 14 13
21 21 20 20 19 19 19 18 18 18 17 17 17 16 17 17 16 16 16 16 16 16 16 15 15 15 15 15 15 15 14 14 14 14 14 14 14 14 14 14 14 14
21 20 20 19 19 19 19 18 18 17 17 17 16 16 16 16 16 16 16 16 16 16 15 15 15 15 15 15 15 15 15 14 14 14 14 14 14 14 14 14 14 14
20 20 19 19 19 19 19 19 18 17 17 16 16 16 16 17 16 16 16 16 16 16 16 16 15 15 15 15 15 15 14 14 14 14 14 14 14 14 14 14 14 14
19 19 19 19 19 19 19 19 18 17 17 16 16 16 17 16 16 16 16 16 16 17 16 16 16 15 15 15 15 15 14 14 14 14 14 14 14 14 14 14 14 13
18 18 19 19 19 19 19 19 19 17 16 16 16 17 17 17 16 16 17 17 17 17 16 16 16 15 15 15 15 15 15 14 14 14 14 14 14 14 14 13 13 13
18 19 19 19 19 19 19 19 19 17 16 17 17 17 17 17 17 17 17 17 17 17 16 16 16 15 15 15 15 15 15 14 14 14 14 14 14 14 13 13 13 13
19 18 18 18 18 18 18 19 19 18 17 18 18 18 17 17 17 17 17 17 17 16 16 16 16 15 15 15 15 15 15 14 14 14 14 14 13 13 13 13 13 13
18 18 17 18 19 19 19 19 19 18 18 18 18 18 17 17 18 18 17 17 17 16 16 16 16 15 15 15 15 15 15 14 14 14 14 14 13 13 13 13 13 13
17 17 18 18 19 19 19 19 19 19 19 19 18 18 18 18 18 17 17 17 16 16 16 16 15 15 15 15 15 15 14 14 14 14 13 13 13 13 13 13 13 13
17 17 18 19 19 19 19 18 19 19 19 19 18 18 18 18 17 17 17 16 16 15 15 15 15 15 15 15 15 15 14 14 14 13 13 13 13 13 13 13 13 13
17 18 19 19 19 19 19 18 19 19 19 18 18 18 18 17 17 17 16 16 15 15 15 15 15 15 15 15 15 14 14 14 14 13 13 13 13 13 13 13 13 13
18 18 19 20 20 19 18 19 19 19 19 19 18 18 18 17 17 16 16 16 15 15 15 15 15 15 15 15 14 14 14 14 13 13 13 13 13 13 13 13 13 13
19 19 19 20 20 19 19 19 19 19 19 19 18 18 18 17 17 16 16 15 15 15 15 15 15 15 15 15 14 14 14 14 13 13 13 13 13 12 12 13 13 13
20 19 19 20 20 19 19 20 20 20 20 19 18 18 18 17 17 16 15 15 15 16 15 15 15 15 14 14 14 14 14 14 13 13 12 12 12 12 12 12 12 12
20 19 19 20 20 20 20 20 20 20 20 19 18 18 17 17 16 16 15 15 16 16 15 15 15 14 14 14 14 13 13 13 13 13 13 12 12 12 12 12 12 12
19 19 20 20 20 20 20 20 20 20 19 19 18 17 17 16 16 15 15 15 15 15 15 14 14 14 14 14 13 13 13 13 13 12 12 12 12 12 12 12 12 12

ECMWFNIL_850_temp_015.txt.gz
Temp
22 22 22 22 21 21 20 20 19 19 19 19 18 18 17 17 17 16 16 16 16 16 16 16 16 16 16 16 16 16 16 15 15 15 15 15 15 15 15 14 14 14
22 22 22 22 21 21 20 20 20 19 19 19 18 18 18 17 17 17 16 16 16 16 16 16 16 16 16 16 16 16 16 15 15 15 15 15 15 15 15 15 14 14
22 22 22 22 21 21 21 20 20 19 19 19 18 18 18 18 17 17 16 16 16 16 16 16 16 16 16 16 16 15 15 15 15 15 15 15 15 15 15 15 14 14
22 22 22 22 21 21 20 20 20 19 19 18 18 18 17 17 17 16 16 16 16 16 16 16 16 16 16 16 15 15 15 15 15 15 15 15 15 14 14 14 14 14
22 22 22 22 21 21 20 20 20 19 19 18 18 17 17 17 16 17 16 16 16 16 16 16 16 16 15 15 15 15 15 15 15 15 14 14 14 14 14 14 14 14
22 22 21 21 21 20 20 20 20 19 19 18 18 17 16 16 16 17 16 16 16 16 16 15 15 15 15 15 15 15 15 14 14 14 14 14 14 14 14 14 14 14
22 21 21 21 20 19 20 20 19 19 18 18 17 17 16 16 17 16 16 16 16 16 15 15 15 15 15 15 15 15 15 14 14 14 14 14 14 14 14 14 14 14
22 22 21 20 19 19 19 20 19 19 18 18 18 17 17 16 16 16 16 16 16 16 16 16 16 15 15 15 15 15 14 14 14 14 14 14 14 14 14 14 14 14
21 21 20 20 19 19 19 19 19 18 18 18 18 17 17 16 16 16 16 16 16 16 16 16 16 15 15 15 15 15 15 14 14 14 14 14 14 14 14 14 14 14
19 19 19 19 19 18 19 19 19 18 18 18 18 17 17 16 16 16 16 16 16 16 16 16 16 15 15 15 15 15 15 15 14 14 14 14 14 14 14 14 14 14
18 19 19 19 19 19 19 19 19 18 18 18 18 17 17 17 17 16 16 16 16 16 16 16 16 15 15 15 15 15 15 15 14 14 14 14 14 14 14 14 14 14
19 19 19 19 19 19 19 19 19 18 18 18 18 17 17 17 17 17 17 17 17 16 16 16 16 16 16 15 15 15 15 15 14 14 14 14 14 14 14 14 14 14
18 19 19 19 18 18 18 18 18 18 18 18 17 17 17 17 17 17 17 17 17 17 17 17 16 16 16 16 15 15 15 15 15 15 15 15 15 14 14 14 14 13
18 18 17 17 17 17 18 18 18 18 18 18 17 17 17 18 17 17 17 17 17 17 17 16 16 16 16 16 15 15 15 15 15 15 15 15 15 15 14 14 14 13
17 16 16 17 17 17 17 17 17 17 17 18 17 17 18 18 17 17 17 17 17 16 16 16 16 16 16 15 15 15 15 15 15 15 15 15 15 14 14 14 14 14
16 14 15 16 17 17 17 17 16 17 17 17 17 17 18 18 17 17 17 16 16 16 16 16 16 16 16 15 15 15 15 15 15 15 15 14 14 14 14 14 14 14
16 15 15 16 17 17 17 17 17 17 18 17 17 18 18 18 17 17 16 16 16 16 16 16 16 16 16 15 15 15 15 15 15 15 14 14 14 14 14 14 14 13
16 17 17 17 17 17 17 17 18 18 18 17 17 18 18 17 17 17 16 16 16 16 16 16 16 16 16 16 15 15 15 15 15 14 14 14 14 14 14 14 13 13
17 17 17 17 17 17 17 18 18 18 18 17 17 18 18 17 17 17 17 17 17 17 17 16 16 16 16 15 15 15 15 15 15 14 14 14 14 14 14 13 13 13
17 17 17 17 17 17 17 18 18 18 18 17 17 17 17 17 17 17 17 17 17 17 16 16 16 16 16 15 15 15 15 15 15 14 14 14 14 14 13 13 13 13
17 17 17 18 17 17 17 17 17 18 18 17 17 17 17 18 18 17 17 17 17 16 16 16 16 16 16 15 15 15 15 15 15 14 14 14 14 13 13 13 13 12
17 17 17 17 16 16 16 17 18 18 18 18 17 17 17 18 18 17 17 17 17 16 16 16 16 16 16 15 15 15 15 15 14 14 14 14 13 13 13 13 13 12
17 17 16 16 16 16 17 17 18 19 18 18 17 17 17 18 18 18 17 17 17 16 16 16 16 16 15 15 15 15 15 14 14 14 14 13 13 13 13 13 12 12
16 16 16 16 16 17 17 17 18 19 18 18 18 18 18 18 18 18 17 17 17 16 16 16 16 15 15 15 15 15 14 14 14 14 13 13 13 13 13 12 12 12
16 16 16 16 17 17 17 18 18 19 19 18 18 18 18 18 18 17 17 17 16 16 16 15 15 15 15 15 15 14 14 14 13 13 13 13 13 12 12 12 11 11
16 16 17 17 17 18 17 17 18 18 18 17 17 17 17 18 18 17 17 16 16 16 16 15 15 15 15 14 14 14 14 14 13 13 13 13 12 12 12 12 11 11

ECMWFNIL_850_temp_021.txt.gz
Temp
21 21 20 20 21 21 21 20 20 19 18 18 18 18 18 18 17 17 17 17 17 17 16 16 16 16 16 16 16 16 16 16 15 15 15 15 15 15 15 15 14 14
22 21 21 21 21 21 21 20 19 19 18 18 18 18 18 18 17 17 17 17 17 17 16 16 16 16 16 16 16 16 16 16 15 15 15 15 14 14 14 14 14 14
22 22 21 21 21 21 20 20 19 19 18 18 19 19 18 18 18 18 17 17 17 17 16 16 16 16 16 16 16 16 16 15 15 15 14 14 14 14 14 14 14 14
22 22 22 22 21 21 20 20 20 19 19 19 19 19 19 19 18 18 17 17 17 17 16 16 16 16 16 16 16 16 15 15 15 14 14 14 14 14 14 14 14 14
23 23 22 22 21 21 20 20 20 20 19 19 19 19 19 19 18 18 18 18 17 17 16 16 16 16 16 16 16 15 15 15 15 14 14 15 15 14 14 14 14 14
23 23 23 22 22 21 21 21 21 20 20 19 19 19 19 19 19 18 18 17 17 17 16 16 16 16 16 16 15 15 15 15 15 14 14 14 14 14 14 14 14 14
23 23 23 22 22 22 21 21 21 21 20 19 19 19 19 19 19 18 18 17 17 17 16 16 16 16 16 15 15 15 15 14 14 14 14 14 14 14 14 14 14 14
24 23 23 22 22 22 22 21 21 20 20 19 19 19 19 19 19 18 18 17 17 17 16 16 16 16 16 15 15 15 14 14 14 14 14 14 14 14 14 14 14 14
24 23 23 23 22 22 22 21 21 20 19 18 18 18 18 18 19 19 18 18 18 17 16 16 16 16 15 15 15 15 14 14 14 14 14 14 14 14 14 14 14 14
24 24 23 23 22 22 22 21 21 20 19 18 18 18 18 18 18 18 18 17 17 17 16 16 16 16 15 15 15 15 15 15 15 15 15 15 15 14 15 14 14 14
24 24 23 23 23 22 22 21 20 20 19 18 18 18 19 19 19 18 18 17 17 17 17 16 16 16 15 15 15 15 15 15 15 15 15 15 15 15 15 15 14 14
24 24 24 24 23 23 22 21 20 19 18 18 18 19 19 19 19 19 18 18 17 17 17 16 16 16 16 16 16 15 15 15 15 15 15 15 15 15 15 15 15 15
24 24 24 24 23 22 21 21 20 19 18 18 19 19 18 18 19 19 19 18 17 17 17 17 16 16 16 16 16 16 15 15 15 15 15 15 15 15 15 15 15 15
24 24 24 23 22 21 21 21 20 19 18 18 19 18 18 18 18 18 18 18 18 17 17 17 16 16 16 16 16 16 15 15 15 15 15 15 15 15 15 15 15 14
23 23 22 21 20 20 20 20 20 19 18 18 18 18 18 18 18 18 18 18 17 17 17 16 16 16 16 16 16 16 15 15 15 15 15 15 15 15 15 15 14 14
22 22 21 20 19 19 19 19 18 18 18 18 18 18 18 17 17 17 17 17 17 17 16 16 16 16 16 16 16 16 15 16 16 16 16 15 15 15 15 15 15 15
21 21 20 19 19 18 18 18 18 18 18 17 18 18 18 17 17 17 17 17 17 17 17 16 16 16 16 16 16 15 15 16 16 16 16 16 15 15 15 15 15 15
21 20 20 19 18 18 17 17 17 17 17 17 18 18 17 16 16 16 17 17 16 16 17 16 16 16 16 16 16 15 15 16 16 16 16 15 15 15 15 15 15 15
20 20 19 19 18 18 17 17 16 15 15 16 17 17 16 16 16 16 16 17 16 16 16 16 16 16 16 16 16 15 15 15 15 15 15 15 15 15 14 14 14 14
20 19 19 18 18 17 17 16 16 15 14 15 16 16 16 15 15 16 17 16 16 16 16 16 16 17 16 16 16 15 15 15 15 15 15 15 15 14 14 14 14 14
20 19 19 18 18 17 17 16 16 15 14 14 15 16 16 15 15 16 16 16 16 16 16 16 16 16 16 16 16 15 15 15 15 15 15 15 15 14 14 14 14 14
19 19 18 18 17 17 16 16 16 15 14 14 15 16 16 15 15 16 16 16 16 16 16 16 16 16 16 16 16 15 15 15 15 15 15 15 15 14 14 14 14 14
19 18 18 18 17 17 16 16 16 15 15 14 15 15 15 15 15 16 16 16 16 16 16 16 16 16 16 16 16 15 15 15 15 15 15 15 14 14 14 14 14 14
19 18 18 18 17 17 17 16 16 15 15 15 15 15 15 15 15 16 16 16 16 16 16 16 16 17 16 16 16 16 15 15 15 15 15 15 14 14 14 14 14 14
18 18 18 18 17 17 17 16 15 15 15 15 15 15 15 15 15 16 16 16 16 15 15 16 16 17 16 16 16 16 15 15 15 15 14 14 14 13 13 13 13 13
18 18 18 17 17 17 16 16 15 15 15 15 15 15 15 15 16 16 16 16 16 15 15 16 16 16 16 16 16 15 15 15 14 14 14 13 13 13 13 13 13 13

ECMWFNIL_850_temp_024.txt.gz
Temp
21 21 21 21 21 21 21 20 20 20 19 19 19 18 18 18 17 17 17 17 17 18 17 17 17 17 16 16 16 16 16 16 15 15 15 15 15 15 15 15 15 15
22 21 21 21 21 21 21 21 20 20 20 19 19 19 18 18 17 17 17 17 17 17 17 17 17 17 16 15 15 15 16 15 15 14 15 15 15 15 15 15 15 15
22 21 21 21 21 21 21 21 20 20 20 19 20 19 18 18 17 17 17 17 17 17 17 17 17 16 15 15 15 15 15 15 14 14 15 15 15 15 15 15 15 15
22 22 22 21 21 21 21 21 21 21 20 20 20 19 18 17 17 17 17 17 17 17 17 17 17 16 16 16 16 16 15 15 15 15 15 15 15 15 15 15 15 15
22 22 22 21 21 21 22 21 21 21 20 20 20 19 18 17 17 17 17 17 17 17 17 17 17 17 16 16 16 16 16 16 16 16 16 16 15 15 15 15 15 15
22 22 22 22 22 22 22 22 21 21 20 20 20 19 19 18 17 17 17 18 18 18 17 17 17 17 17 17 16 16 16 16 16 15 15 15 15 15 14 14 15 15
22 22 22 22 22 22 22 22 21 21 21 20 20 20 19 18 17 17 18 19 19 18 18 18 18 18 17 17 17 16 16 16 16 15 15 15 15 15 14 14 15 15
23 22 22 22 22 22 22 22 22 22 21 21 20 19 19 18 18 18 19 19 19 19 19 19 18 18 17 18 17 16 16 16 16 15 15 15 15 15 15 15 15 15
23 23 23 23 23 23 23 22 22 22 21 21 20 19 19 19 19 19 19 19 19 19 19 19 19 18 18 17 17 16 16 16 16 15 15 15 15 15 15 15 15 15
23 23 23 23 23 23 23 23 22 22 22 21 20 19 19 19 20 20 19 19 19 19 19 19 19 19 18 17 16 16 16 16 16 15 15 15 15 15 15 15 15 15
24 23 23 23 23 23 23 23 23 23 22 21 20 20 19 19 20 20 19 19 19 19 19 19 19 19 18 18 16 16 16 16 16 16 15 15 15 15 15 15 15 15
24 24 24 23 23 23 23 23 22 22 23 22 21 20 20 19 20 20 20 20 19 19 19 19 19 18 18 18 16 15 16 16 16 15 15 16 15 15 15 15 15 15
25 24 24 24 23 23 23 23 22 22 22 22 21 20 20 20 20 20 20 20 19 19 18 19 18 18 18 17 16 16 16 15 15 15 16 16 16 15 15 15 15 15
25 24 24 23 23 23 22 22 21 21 21 22 21 21 20 20 21 21 21 20 19 18 18 18 18 17 17 17 17 16 16 15 15 16 16 16 16 15 15 14 15 15
24 24 23 22 21 21 22 20 19 19 20 22 22 21 20 20 21 21 20 20 18 18 18 18 18 17 18 18 17 16 16 16 16 16 16 16 15 15 15 14 15 15
24 23 22 21 20 20 21 20 19 18 19 21 22 21 20 20 20 20 20 19 18 17 18 18 18 17 17 17 17 16 16 15 15 16 16 16 15 15 15 15 15 15
23 23 22 21 20 20 20 20 19 18 19 20 21 21 20 19 19 19 19 18 17 17 17 18 17 17 17 17 16 16 15 15 15 16 16 16 15 15 15 15 15 15
22 22 22 20 20 20 20 19 19 18 18 18 19 19 20 19 18 18 18 17 17 17 17 17 17 17 16 16 16 16 15 15 16 16 15 15 15 15 15 15 15 15
22 22 21 19 19 20 20 19 19 19 18 18 18 18 19 18 17 17 17 17 16 16 17 17 17 16 16 16 16 16 15 15 16 15 15 15 15 15 15 15 15 15
23 22 20 18 18 19 19 19 19 19 18 18 18 17 18 17 17 17 16 16 16 16 16 17 17 16 16 16 16 15 15 15 16 15 15 15 15 15 14 14 15 15
22 21 19 18 18 18 18 19 19 19 18 18 17 17 17 16 16 16 16 15 15 16 16 16 16 15 15 16 16 16 15 15 15 15 15 15 15 15 15 15 15 15
22 21 19 17 17 17 17 18 19 19 18 17 17 17 16 16 15 15 15 15 15 15 15 15 15 15 15 16 16 16 16 15 15 15 15 15 15 15 15 15 14 14
22 20 18 17 17 17 17 17 18 18 17 17 17 16 16 15 15 15 14 14 14 14 15 15 15 15 15 16 16 16 16 15 15 15 15 15 15 15 15 14 14 14
20 19 17 17 17 17 16 17 17 17 16 17 17 16 15 15 15 15 14 14 14 14 15 15 15 15 15 16 16 16 16 15 15 15 15 15 15 15 15 15 14 14
20 18 17 17 17 16 16 16 16 16 16 16 16 15 14 14 15 14 14 14 14 14 15 15 15 15 16 16 16 16 16 15 15 15 15 15 15 15 14 14 14 14
20 18 17 17 17 16 16 16 16 15 15 16 15 14 14 14 14 14 14 14 14 14 15 15 15 16 15 15 16 16 16 16 15 15 15 15 15 15 14 14 14 14

ECMWFNIL_850_temp_027.txt.gz
Temp
22 22 21 21 21 22 21 21 20 20 20 19 19 19 19 18 18 18 18 17 17 16 16 16 16 16 16 16 17 17 16 16 16 15 15 15 15 15 15 15 15 15
22 22 22 21 21 21 21 21 20 20 20 20 19 19 18 18 18 18 17 17 17 16 16 16 17 17 17 17 17 18 17 17 16 15 15 16 16 16 15 15 15 15
22 22 22 22 21 22 22 21 21 21 21 21 20 19 18 18 18 18 17 17 17 16 17 17 17 18 18 17 18 18 18 18 17 15 15 15 16 16 16 15 15 15
22 22 22 22 22 21 22 22 21 21 21 20 20 20 18 18 18 18 18 17 17 17 18 18 18 18 18 18 18 19 18 18 17 16 15 15 16 17 16 16 15 15
22 22 22 22 22 21 21 22 22 22 21 20 20 20 19 18 19 19 18 18 18 19 19 19 19 18 18 18 18 18 18 18 18 17 16 16 16 16 16 16 15 15
22 22 22 22 22 22 21 22 22 22 21 21 20 20 19 19 20 19 18 19 20 19 19 19 19 19 18 18 18 18 18 18 18 18 17 17 16 15 15 15 15 16
23 23 23 22 22 22 22 22 22 22 22 21 21 20 20 20 21 20 19 20 20 19 18 19 19 19 18 18 18 18 18 18 18 18 18 17 16 15 15 15 16 17
23 23 23 23 22 22 22 22 22 22 22 21 21 21 21 21 21 21 20 21 21 19 19 19 19 19 18 18 18 18 18 18 18 18 18 17 16 15 15 15 16 16
23 23 23 23 23 23 22 22 22 22 22 22 22 21 21 22 21 21 21 21 21 20 20 20 19 19 18 18 19 18 18 18 18 18 17 16 16 15 15 16 15 16
24 23 23 23 23 23 23 22 22 22 23 23 22 21 22 22 21 21 21 21 21 20 20 20 20 20 19 19 19 19 18 18 18 18 17 16 16 15 15 15 15 15
24 24 24 23 23 23 23 23 22 22 22 23 22 21 22 22 21 21 21 21 21 20 20 20 20 20 20 19 19 19 18 18 18 17 17 17 16 16 16 15 15 16
25 24 24 24 23 23 22 22 23 23 22 22 23 22 22 22 22 22 22 21 21 21 20 20 20 20 19 19 19 19 18 18 17 17 17 17 16 16 16 16 15 16
25 25 25 24 23 23 22 22 23 23 21 21 23 23 22 22 22 22 22 21 21 21 21 20 20 19 19 19 19 18 18 18 17 17 17 17 17 16 16 15 15 15
25 25 24 23 23 23 22 22 23 23 21 21 22 23 22 23 22 22 22 22 21 21 21 20 19 19 19 19 19 18 18 18 17 17 17 17 17 16 15 15 15 15
24 23 23 22 22 22 21 22 23 23 21 20 21 22 22 22 22 22 22 21 21 21 20 19 19 19 19 19 19 18 18 18 17 17 17 17 16 16 15 15 15 15
23 22 21 21 21 21 20 20 21 22 21 20 20 20 21 21 21 20 20 20 20 20 19 19 19 19 19 19 19 18 18 17 17 16 16 16 16 16 16 15 15 15
23 21 21 21 20 20 20 20 19 20 20 20 19 19 20 20 19 19 18 18 19 19 19 19 19 19 19 19 18 18 17 17 16 16 15 16 16 16 16 16 15 15
22 21 21 21 20 20 20 19 19 19 19 19 19 19 19 19 19 18 18 17 17 18 19 19 19 18 18 19 18 17 17 16 16 15 15 15 16 16 16 16 16 16
22 21 20 20 20 20 19 19 19 19 19 19 19 19 18 18 18 18 18 17 17 17 18 19 19 18 18 18 17 17 16 16 16 15 15 15 15 15 15 16 15 15
21 21 20 20 20 19 19 19 19 18 18 18 18 18 18 18 18 18 18 18 17 17 18 18 18 17 18 18 17 16 16 16 16 15 15 15 16 15 15 15 15 15
21 20 20 20 19 19 19 19 19 18 18 18 18 18 18 17 17 17 18 17 17 17 17 17 17 17 17 17 17 17 16 16 16 15 15 15 16 15 15 15 15 15
21 20 20 19 19 19 18 18 18 18 18 17 17 17 17 17 17 18 18 17 17 17 16 16 16 16 16 17 17 17 16 16 15 15 15 15 16 16 15 15 15 15
21 20 20 19 19 19 18 18 18 18 17 17 17 17 17 17 17 17 17 17 16 16 16 15 15 15 16 16 17 17 16 16 16 15 15 15 16 16 15 15 15 15
22 21 21 20 19 18 18 18 17 17 17 17 16 17 16 16 16 17 16 16 15 15 15 15 15 15 15 16 16 16 16 16 16 16 16 16 16 15 15 15 15 15
23 22 21 20 19 18 18 17 17 17 17 17 16 16 16 16 15 15 15 15 15 14 15 15 15 15 15 16 16 16 15 15 16 16 16 16 16 15 14 14 15 16
24 23 21 20 18 18 17 17 17 16 16 16 16 16 15 15 15 14 14 14 14 14 14 14 15 15 15 15 15 15 15 15 15 15 15 15 15 15 14 14 15 16

ECMWFNIL_850_temp_030.txt.gz
Temp
22 22 22 22 22 22 22 21 21 21 21 21 21 21 21 20 19 19 18 19 18 18 19 19 20 20 19 18 18 17 17 18 17 17 17 18 18 18 17 16 16 16
22 22 22 22 22 22 22 22 21 22 22 21 21 21 21 20 20 19 19 19 19 18 20 20 21 20 19 19 18 18 18 18 17 16 17 18 18 18 17 16 16 16
22 22 22 22 22 22 22 22 22 22 22 21 21 20 20 21 20 20 19 19 20 20 20 21 21 20 19 18 18 18 18 18 18 16 17 18 18 18 17 16 16 16
22 22 22 22 22 22 22 22 22 22 22 21 21 20 20 20 20 20 20 19 20 20 21 21 21 20 20 19 19 19 18 18 18 17 17 18 18 18 17 16 15 15
22 22 22 22 22 22 22 22 22 22 22 21 21 21 20 20 20 20 20 20 20 20 20 21 21 20 20 19 18 18 18 18 18 18 18 18 18 18 17 17 16 16
23 22 22 22 22 22 22 22 22 22 22 22 22 21 21 20 20 20 20 20 20 20 20 21 21 20 20 20 19 18 18 18 18 18 18 18 18 18 18 17 17 16
23 23 22 22 22 22 22 22 23 23 22 22 22 21 21 21 21 20 21 20 20 20 20 21 21 21 21 20 19 19 19 18 18 18 18 18 18 18 18 17 17 16
23 23 23 22 22 22 22 22 22 22 22 22 22 21 21 21 21 21 21 21 20 21 20 21 21 21 21 21 20 20 19 19 18 18 18 18 18 18 18 18 17 16
23 23 23 23 22 22 22 22 22 22 22 22 22 21 21 21 21 21 21 21 21 21 21 21 21 21 21 20 20 20 19 19 19 19 18 18 18 18 18 18 17 17
23 23 23 23 23 23 23 22 22 22 22 22 21 21 21 21 21 21 21 21 21 21 21 21 21 21 21 20 20 20 20 20 20 19 19 19 18 18 18 18 17 17
23 23 23 23 24 23 23 23 22 21 21 22 21 21 20 21 21 21 21 21 21 21 21 21 21 21 21 21 20 20 20 20 20 19 19 19 18 18 18 18 18 17
24 23 24 24 24 24 24 23 22 21 21 21 21 21 20 20 21 21 21 21 20 20 21 21 21 21 21 21 21 21 20 20 20 19 19 19 18 18 17 17 17 18
25 24 24 24 24 24 23 23 22 22 21 21 21 21 21 20 21 21 21 21 20 20 20 21 21 21 21 21 21 21 20 20 20 20 19 19 18 17 17 17 17 17
25 25 25 25 25 25 24 23 22 22 22 21 21 21 20 20 21 21 21 21 20 20 20 20 20 20 21 21 20 20 20 20 20 20 19 18 18 17 17 17 17 17
25 25 25 25 25 25 24 23 23 22 22 22 21 21 20 20 20 20 20 20 20 19 19 19 19 19 20 20 20 20 20 20 20 19 19 18 18 17 17 16 16 16
25 25 25 25 24 24 24 24 23 22 22 22 21 21 20 20 19 19 19 19 19 19 18 18 18 19 19 19 19 20 20 20 20 19 18 18 18 17 17 16 16 16
25 25 25 25 24 24 24 23 23 22 22 21 21 21 21 20 20 19 19 19 18 18 17 17 18 18 19 19 19 19 20 20 20 19 18 18 18 17 16 16 15 15
25 25 24 24 24 24 23 23 22 22 21 21 21 21 21 20 20 20 19 19 18 17 17 17 17 18 18 19 19 19 19 19 19 19 18 17 17 17 16 15 15 15
25 24 24 23 23 23 23 22 22 21 21 21 21 20 20 20 20 20 19 19 18 18 17 17 17 17 18 18 19 19 19 19 18 18 18 17 17 17 16 16 15 16
24 24 23 23 23 23 22 22 21 21 20 20 20 20 20 20 20 19 19 19 19 18 17 17 17 17 18 18 18 18 19 18 18 17 17 17 17 16 16 16 15 15
23 23 23 23 23 22 22 21 21 21 20 20 20 19 19 19 19 19 19 19 18 18 18 17 17 17 17 17 17 18 18 18 17 17 17 17 16 16 15 15 15 15
23 23 23 22 22 21 21 21 20 20 20 19 19 19 19 19 19 19 18 18 18 18 18 18 17 17 17 17 17 18 18 17 17 17 17 16 16 15 15 15 15 15
23 23 22 22 22 21 20 20 20 20 20 19 19 18 18 18 18 18 18 18 17 17 17 17 17 17 17 17 17 17 17 16 16 16 16 16 15 15 15 15 15 15
22 22 22 22 21 21 20 20 19 19 19 19 18 18 18 18 18 18 18 17 17 16 16 16 16 16 16 16 16 16 16 16 16 16 16 16 16 16 15 15 15 15
22 22 22 21 21 20 19 19 19 19 19 18 18 18 18 18 17 17 17 17 16 16 16 16 16 16 16 16 16 16 16 16 16 15 15 16 16 15 15 15 15 15
21 21 21 21 20 20 19 19 19 19 19 18 18 18 17 17 17 17 17 16 16 16 16 15 15 15 15 15 15 15 16 16 15 15 15 16 15 15 15 15 15 15

ECMWFNIL_850_temp_033.txt.gz
Temp
23 23 23 22 22 22 22 22 22 21 21 21 22 22 21 21 21 21 21 20 20 20 20 20 20 19 20 19 19 19 19 18 19 19 19 19 18 18 18 18 18 18
23 23 23 22 22 22 22 22 22 22 21 22 22 22 21 21 21 21 21 20 20 20 20 20 20 20 20 20 20 20 19 19 19 19 19 19 19 18 18 18 18 18
23 23 23 23 22 22 22 22 21 21 22 22 22 22 21 21 21 21 21 20 20 20 20 21 21 20 20 21 21 21 20 19 19 19 19 19 19 18 18 18 18 18
23 23 23 23 22 22 22 22 21 21 21 21 22 22 21 21 21 21 20 20 20 21 20 21 21 21 21 21 21 21 20 20 19 19 19 19 19 18 18 18 18 18
23 23 23 23 23 22 22 22 22 21 21 21 21 21 21 21 21 21 20 20 20 21 21 21 21 21 21 21 21 21 20 20 19 19 19 19 19 18 18 18 18 18
23 23 23 23 23 22 22 22 22 22 21 21 21 21 21 22 21 21 21 21 21 21 21 22 22 21 21 22 22 21 21 20 20 19 19 19 19 19 18 18 18 18
23 23 23 23 23 22 22 22 22 22 22 21 21 21 22 22 22 22 21 21 21 21 22 22 22 22 22 22 22 22 21 21 20 20 19 19 19 19 18 18 18 18
22 23 23 23 23 22 23 22 22 22 22 21 21 21 22 22 22 22 22 22 21 21 22 22 22 22 22 22 22 22 22 21 21 20 20 20 19 19 19 18 18 18
22 23 23 23 23 22 23 23 22 22 22 21 22 21 22 22 22 22 22 22 22 21 22 22 22 22 22 22 22 22 22 22 21 21 20 20 20 19 19 18 18 18
22 22 23 23 23 23 23 23 22 22 22 22 22 22 22 22 22 22 22 22 22 21 21 21 21 22 22 22 22 22 22 22 21 21 21 20 20 20 19 18 18 18
22 22 23 23 23 23 23 23 23 22 22 22 22 22 22 22 22 22 22 22 22 22 21 21 21 21 22 22 22 22 22 21 21 21 21 20 20 20 19 18 18 18
22 22 23 24 24 23 23 23 23 23 23 22 22 22 22 22 22 22 22 21 21 21 21 21 21 21 21 21 21 21 21 21 21 21 21 20 20 19 19 18 18 18
23 23 24 24 24 24 24 23 23 23 23 23 22 22 22 22 22 22 21 21 21 21 21 20 20 20 20 20 20 21 21 21 21 20 20 20 20 19 19 18 18 18
23 24 24 24 24 24 24 23 23 23 23 23 22 22 22 22 22 22 21 21 21 20 20 20 20 19 19 19 19 20 20 21 21 20 20 20 20 19 19 18 18 18
24 24 24 24 24 24 24 24 23 23 22 22 22 22 22 22 21 21 21 20 20 20 20 19 19 19 19 19 19 19 20 20 20 20 20 20 19 19 19 18 18 18
24 24 24 24 24 24 24 24 24 23 22 22 22 22 22 22 21 21 21 20 20 20 19 19 19 18 18 18 18 19 19 20 20 20 20 20 19 19 18 18 18 17
24 24 24 24 24 24 24 24 23 23 22 22 22 22 21 21 21 21 21 20 20 20 19 19 19 18 18 18 18 18 19 19 19 20 20 20 19 19 18 18 18 17
24 24 24 24 24 24 24 24 23 22 22 22 22 22 21 21 21 21 21 20 20 20 19 19 19 19 18 19 19 18 18 18 18 19 19 19 19 19 18 18 18 17
24 25 24 24 24 24 24 23 23 22 22 22 22 22 21 21 21 21 20 20 20 20 19 19 19 18 18 18 18 18 18 17 17 18 19 19 19 18 18 18 18 17
25 25 24 24 24 24 23 23 22 22 22 22 22 21 21 21 21 21 20 20 20 20 19 19 19 18 18 18 18 18 18 17 17 17 18 18 18 17 18 18 17 17
25 25 24 24 24 23 23 23 22 22 22 22 22 21 21 21 21 20 20 20 20 19 19 19 19 19 19 19 19 19 18 17 16 17 17 18 17 17 17 18 17 16
24 24 24 24 23 23 23 22 22 22 22 21 21 21 21 21 21 20 20 20 20 19 19 19 19 19 19 19 18 18 17 17 16 16 16 17 16 16 17 17 17 16
24 24 24 24 23 23 22 22 22 22 21 21 21 21 21 21 20 20 20 19 19 19 19 19 19 19 18 18 18 17 17 16 16 16 16 15 15 16 17 17 17 16
24 24 24 23 23 23 22 22 22 21 21 21 21 21 21 20 20 20 19 19 19 19 19 19 19 18 18 18 17 17 17 16 16 16 15 15 15 16 16 16 16 16
24 24 24 23 23 22 22 22 22 21 21 21 20 20 20 20 20 19 19 19 19 18 18 18 18 18 18 17 17 17 16 16 16 16 15 15 15 16 16 16 16 15
24 23 23 23 23 22 22 22 21 21 21 20 20 20 20 19 19 19 18 18 18 18 18 18 18 18 17 17 17 16 16 16 16 16 15 15 16 16 16 16 15 15

ECMWFNIL_850_temp_036.txt.gz
Temp
22 22 22 23 23 22 22 22 21 21 22 22 21 21 21 21 22 21 21 21 21 21 21 21 21 21 21 21 21 21 21 20 19 19 19 19 19 19 18 18 18 18
22 22 22 22 22 22 22 22 21 21 22 22 21 21 21 21 21 21 21 21 21 21 21 21 21 21 21 21 21 21 21 20 20 19 19 19 19 19 18 18 18 18
22 22 22 22 22 22 22 22 21 21 22 22 21 21 21 21 21 21 21 21 21 21 21 21 21 21 21 21 21 21 21 21 21 20 20 20 19 19 19 19 18 18
22 22 22 22 22 22 22 22 21 21 21 21 21 21 21 21 21 21 21 21 21 21 22 21 21 21 21 21 21 21 21 21 21 21 20 20 20 20 19 19 19 18
22 22 22 22 22 22 22 22 22 22 22 21 21 21 21 21 21 21 21 21 21 21 21 21 21 21 21 21 22 22 22 22 21 21 20 20 20 20 20 19 19 19
21 21 22 22 22 22 22 22 22 22 22 22 22 21 21 21 21 21 21 21 21 21 21 21 21 21 21 21 22 22 22 22 22 21 21 21 20 20 20 19 19 19
21 21 21 21 22 22 22 22 22 22 22 22 22 22 21 21 21 21 21 21 21 21 21 21 21 21 21 21 21 22 22 22 22 22 21 21 21 20 20 20 19 19
22 21 21 21 21 21 22 22 22 22 22 22 22 22 22 21 21 21 21 21 21 21 21 21 21 22 21 21 21 22 22 22 22 22 22 22 21 21 20 20 19 19
22 22 21 21 21 21 22 22 22 22 22 22 22 22 22 22 21 21 21 21 21 21 21 21 21 21 21 21 21 21 22 22 22 22 22 22 21 21 20 20 19 19
22 22 21 21 21 22 22 22 22 22 22 22 22 22 22 22 21 21 21 21 21 21 21 21 21 21 21 21 21 21 21 22 22 22 22 22 21 21 21 20 19 19
22 22 22 22 22 22 22 22 22 22 22 22 22 22 22 22 21 21 21 21 21 21 21 21 21 21 21 21 21 21 21 21 22 22 22 21 21 21 20 20 19 19
23 23 23 22 22 22 22 22 22 22 22 23 22 22 22 22 21 21 21 21 21 21 21 21 21 21 21 21 21 21 21 21 21 21 21 21 21 21 20 20 20 19
23 23 24 23 23 23 22 22 22 22 22 23 23 22 22 22 22 22 21 21 21 21 21 21 20 20 20 20 20 20 20 20 20 21 21 21 21 21 20 20 20 19
23 24 24 24 24 23 22 22 22 22 22 23 23 22 22 22 22 22 22 21 21 21 21 20 20 20 20 20 20 20 20 20 20 20 20 21 21 21 20 20 19 19
23 24 24 24 24 23 22 22 22 22 22 22 22 22 22 22 22 22 21 21 21 21 20 20 20 20 19 19 19 19 19 20 20 20 20 20 20 21 20 20 19 19
23 24 24 24 24 23 23 22 22 22 22 22 22 22 22 22 22 21 21 21 21 21 20 20 20 20 19 19 19 19 19 19 19 19 19 19 19 20 20 20 20 19
24 23 23 23 23 23 23 23 23 22 22 22 22 22 22 21 21 21 21 21 21 21 20 20 20 20 20 19 19 19 20 19 19 19 19 18 18 19 20 20 20 19
24 24 24 23 23 23 23 23 23 22 22 21 22 22 22 21 21 21 21 21 21 21 21 21 20 20 20 19 20 20 20 19 19 19 18 18 18 18 19 20 20 19
24 24 24 24 24 23 23 23 22 22 21 21 22 22 22 21 21 21 21 21 21 21 21 21 20 20 20 20 20 20 19 19 19 19 18 18 18 18 18 19 20 19
24 24 24 24 24 23 23 22 22 22 22 22 22 22 21 21 21 21 21 21 21 21 21 21 20 20 20 20 19 19 19 19 18 18 18 18 18 17 18 18 19 19
24 24 24 24 24 23 23 22 22 22 22 22 22 21 21 22 22 22 22 22 21 21 21 21 20 20 20 19 19 19 19 19 18 18 18 18 17 17 17 17 17 18
25 25 24 24 23 23 23 22 22 22 22 22 21 21 22 22 22 22 22 21 21 21 21 20 20 20 20 19 19 19 19 18 18 18 18 17 17 17 17 16 17 17
25 25 24 24 23 23 23 23 23 22 22 22 21 21 22 22 22 22 21 21 21 21 21 20 20 20 20 19 19 19 18 18 18 17 17 17 17 17 16 16 16 16
25 25 24 24 23 23 23 23 23 23 22 22 22 22 22 22 22 21 21 21 21 21 21 20 20 20 19 19 19 19 18 18 18 17 17 17 17 16 16 16 16 16
25 25 24 24 24 24 24 24 24 23 23 22 22 22 22 22 21 21 21 21 21 21 20 20 20 20 19 19 19 18 18 18 18 17 17 16 16 16 16 16 15 15
25 25 25 24 24 24 24 24 23 23 23 22 22 22 21 21 21 21 21 21 21 20 20 20 19 19 19 19 18 18 18 18 17 17 16 16 16 16 16 15 15 15